Location: Home
(42.5358°N, 72.7383°W)
Time: 09:08:00
(UTC-05:00)

Transit 4A - Pass Details

Date: 03 December 2021
Orbit: 864 x 981 km, 66.8° (Epoch: 21 January)

Event Time Altitude Azimuth Distance (km) Brightness Sun altitude
Exits shadow 05:05:42 39° 277° (W) 1,421 8.3 -21.0°
Maximum altitude 05:06:58 43° 248° (WSW) 1,331 8.3 -20.8°
Drops below altitude 10° 05:12:55 10° 179° (S) 2,720 10.5 -19.7°
Sets 05:15:37 0° 173° (S) 3,666 11.3 -19.3°
